| time (UTC) | temp C | wind direction | speed KPH | gust KPH | rain 1hr cm | rain 24hr cm | rain mn cm | humidity % | barometer mb |
| 20260507104536 | 20 | 271 | 4.8 | 12.9 | 0.00 | 0.00 | 0.00 | 48 | 1012.6 |
| 20260507103033 | 20 | 238 | 4.8 | 11.3 | 0.00 | 0.00 | 0.00 | 48 | 1012.7 |
| 20260507101530 | 20 | 256 | 6.4 | 14.5 | 0.00 | 0.00 | 0.00 | 48 | 1012.9 |
| 20260507100034 | 20 | 273 | 3.2 | 8.0 | 0.00 | 0.00 | 0.00 | 51 | 1012.9 |
| 20260507094523 | 20 | 325 | 3.2 | 9.7 | 0.00 | 0.00 | 0.00 | 47 | 1013.0 |
| 20260507093019 | 19 | 268 | 3.2 | 9.7 | 0.00 | 0.00 | 0.00 | 50 | 1013.1 |
| 20260507091516 | 18 | 244 | 1.6 | 8.0 | 0.00 | 0.00 | 0.00 | 53 | 1013.0 |
| 20260507090019 | 18 | 242 | 1.6 | 8.0 | 0.00 | 0.00 | 0.00 | 58 | 1012.9 |
| 20260507084511 | 18 | 302 | 0.0 | 6.4 | 0.00 | 0.00 | 0.00 | 59 | 1012.9 |
| 20260507083002 | 17 | 298 | 0.0 | 4.8 | 0.00 | 0.00 | 0.00 | 61 | 1013.0 |
| 20260507081604 | 17 | 289 | 0.0 | 6.4 | 0.00 | 0.00 | 0.00 | 63 | 1012.8 |
| 20260507080053 | 17 | 45 | 0.0 | 9.7 | 0.00 | 0.00 | 0.00 | 66 | 1012.8 |
| 20260507074601 | 16 | 248 | 0.0 | 3.2 | 0.00 | 0.00 | 0.00 | 71 | 1012.9 |
| 20260507073044 | 15 | 246 | 0.0 | 4.8 | 0.00 | 0.00 | 0.00 | 82 | 1012.9 |
| 20260507071540 | 13 | 244 | 0.0 | 3.2 | 0.00 | 0.00 | 0.00 | 90 | 1012.9 |
| 20260507070036 | 12 | 245 | 0.0 | 0.0 | 0.00 | 0.00 | 0.00 | 93 | 1012.7 |
| 20260507064532 | 12 | 245 | 0.0 | 0.0 | 0.00 | 0.00 | 0.00 | 94 | 1012.7 |
| 20260507063029 | 11 | 245 | 0.0 | 3.2 | 0.00 | 0.00 | 0.00 | 94 | 1012.6 |
| 20260507061523 | 10 | 244 | 0.0 | 0.0 | 0.00 | 0.00 | 0.00 | 94 | 1012.6 |
| 20260507060026 | 9 | 244 | 0.0 | 0.0 | 0.00 | 0.00 | 0.00 | 94 | 1012.6 |
| 20260507054515 | 8 | 244 | 0.0 | 0.0 | 0.00 | 0.00 | 0.00 | 94 | 1012.6 |
| 20260507053012 | 8 | 244 | 0.0 | 0.0 | 0.00 | 0.00 | 0.00 | 93 | 1012.5 |
| 20260507051510 | 8 | 244 | 0.0 | 0.0 | 0.00 | 0.00 | 0.00 | 93 | 1012.4 |
| 20260507050023 | 8 | 244 | 0.0 | 0.0 | 0.00 | 0.00 | 0.00 | 93 | 1012.3 |
| 20260507044507 | 8 | 244 | 0.0 | 0.0 | 0.00 | 0.00 | 0.00 | 93 | 1012.2 |
| 20260507043004 | 8 | 244 | 0.0 | 0.0 | 0.00 | 0.00 | 0.00 | 93 | 1012.2 |
| 20260507041503 | 9 | 244 | 0.0 | 0.0 | 0.00 | 0.00 | 0.00 | 93 | 1012.1 |
| 20260507040005 | 9 | 244 | 0.0 | 0.0 | 0.00 | 0.00 | 0.00 | 93 | 1012.1 |
| 20260507034500 | 9 | 246 | 1.6 | 3.2 | 0.00 | 0.00 | 0.00 | 93 | 1012.0 |
| 20260507033105 | 9 | 246 | 0.0 | 0.0 | 0.00 | 0.00 | 0.00 | 92 | 1011.9 |
| 20260507031607 | 10 | 246 | 0.0 | 1.6 | 0.00 | 0.00 | 0.00 | 92 | 1011.9 |
| 20260507030059 | 10 | 246 | 0.0 | 3.2 | 0.00 | 0.00 | 0.00 | 92 | 1012.1 |
| 20260507024555 | 10 | 245 | 0.0 | 0.0 | 0.00 | 0.00 | 0.00 | 92 | 1011.9 |
| 20260507023103 | 10 | 245 | 0.0 | 1.6 | 0.00 | 0.00 | 0.00 | 92 | 1011.8 |
| 20260507021552 | 10 | 245 | 0.0 | 0.0 | 0.00 | 0.00 | 0.00 | 92 | 1012.0 |
| 20260507020055 | 10 | 245 | 0.0 | 0.0 | 0.00 | 0.00 | 0.00 | 92 | 1012.0 |
| 20260507014552 | 11 | 245 | 0.0 | 0.0 | 0.00 | 0.05 | 0.00 | 92 | 1012.1 |
| 20260507013046 | 11 | 245 | 0.0 | 0.0 | 0.00 | 0.05 | 0.00 | 92 | 1012.1 |
| 20260507011544 | 11 | 245 | 0.0 | 0.0 | 0.00 | 0.05 | 0.00 | 91 | 1012.1 |
| 20260507010043 | 11 | 245 | 0.0 | 0.0 | 0.00 | 0.05 | 0.00 | 91 | 1012.2 |
| 20260507004540 | 11 | 245 | 0.0 | 3.2 | 0.00 | 1.02 | 0.00 | 91 | 1012.2 |
| 20260507003039 | 11 | 245 | 0.0 | 0.0 | 0.00 | 1.02 | 0.00 | 90 | 1012.4 |
| 20260507001540 | 11 | 245 | 0.0 | 0.0 | 0.00 | 1.02 | 0.00 | 90 | 1012.3 |
| 20260507000039 | 11 | 245 | 0.0 | 0.0 | 0.00 | 1.02 | 0.00 | 90 | 1012.4 |
| 20260506234533 | 11 | 245 | 0.0 | 3.2 | 0.00 | 1.42 | 0.00 | 89 | 1012.4 |
| 20260506233033 | 12 | 245 | 0.0 | 1.6 | 0.00 | 1.42 | 0.00 | 89 | 1012.6 |
| 20260506231528 | 12 | 246 | 0.0 | 3.2 | 0.00 | 1.42 | 0.00 | 88 | 1012.7 |
| 20260506230027 | 12 | 246 | 0.0 | 4.8 | 0.00 | 1.42 | 0.00 | 88 | 1012.7 |
| 20260506224525 | 12 | 242 | 0.0 | 6.4 | 0.00 | 1.57 | 0.00 | 88 | 1012.7 |
| 20260506223024 | 12 | 237 | 1.6 | 8.0 | 0.00 | 1.57 | 0.00 | 87 | 1012.7 |
| 20260506221521 | 13 | 252 | 0.0 | 6.4 | 0.00 | 1.57 | 0.00 | 86 | 1012.9 |
| 20260506220023 | 13 | 253 | 3.2 | 12.9 | 0.00 | 1.57 | 0.00 | 86 | 1012.7 |
| 20260506214517 | 13 | 248 | 4.8 | 8.0 | 0.00 | 1.60 | 1.57 | 84 | 1012.7 |
| 20260506213016 | 13 | 245 | 4.8 | 9.7 | 0.00 | 1.60 | 1.57 | 84 | 1012.6 |
| 20260506211518 | 13 | 242 | 3.2 | 9.7 | 0.00 | 1.60 | 1.57 | 83 | 1012.6 |
| 20260506210015 | 12 | 242 | 3.2 | 11.3 | 0.00 | 1.60 | 1.57 | 82 | 1012.7 |
| 20260506204520 | 12 | 246 | 1.6 | 4.8 | 0.00 | 1.60 | 1.57 | 81 | 1012.6 |
| 20260506203012 | 13 | 246 | 1.6 | 6.4 | 0.00 | 1.60 | 1.57 | 80 | 1012.4 |
| 20260506201513 | 13 | 250 | 0.0 | 11.3 | 0.00 | 1.60 | 1.57 | 80 | 1012.2 |
| 20260506200008 | 13 | 250 | 1.6 | 6.4 | 0.00 | 1.60 | 1.57 | 80 | 1012.1 |
| 20260506194514 | 13 | 243 | 3.2 | 9.7 | 0.00 | 1.60 | 1.57 | 80 | 1011.9 |
| 20260506193004 | 13 | 245 | 4.8 | 9.7 | 0.00 | 1.60 | 1.57 | 80 | 1011.4 |
| 20260506191501 | 13 | 248 | 3.2 | 11.3 | 0.00 | 1.60 | 1.57 | 79 | 1011.2 |
| 20260506184558 | 14 | 248 | 3.2 | 11.3 | 0.00 | 1.60 | 1.57 | 74 | 1010.7 |
| 20260506183056 | 15 | 246 | 1.6 | 8.0 | 0.00 | 1.60 | 1.57 | 72 | 1010.5 |
| 20260506181556 | 16 | 239 | 4.8 | 11.3 | 0.00 | 1.60 | 1.57 | 70 | 1010.4 |
| 20260506180104 | 16 | 245 | 3.2 | 12.9 | 0.00 | 1.60 | 1.57 | 68 | 1010.1 |
| 20260506174550 | 16 | 229 | 3.2 | 11.3 | 0.00 | 1.60 | 1.57 | 65 | 1010.0 |
| 20260506173055 | 17 | 244 | 9.7 | 17.7 | 0.00 | 1.60 | 1.57 | 62 | 1009.8 |
| 20260506171550 | 17 | 249 | 3.2 | 11.3 | 0.00 | 1.60 | 1.57 | 62 | 1009.6 |
| 20260506170100 | 17 | 170 | 6.4 | 12.9 | 0.00 | 1.60 | 1.57 | 62 | 1009.6 |
| 20260506164546 | 17 | 241 | 4.8 | 16.1 | 0.00 | 1.60 | 1.57 | 63 | 1009.7 |
| 20260506163105 | 17 | 229 | 6.4 | 16.1 | 0.00 | 1.60 | 1.57 | 63 | 1009.7 |
| 20260506161542 | 18 | 257 | 6.4 | 17.7 | 0.00 | 1.60 | 1.57 | 62 | 1009.8 |
| 20260506160042 | 17 | 238 | 9.7 | 17.7 | 0.00 | 1.60 | 1.57 | 63 | 1009.8 |
| 20260506154525 | 18 | 250 | 6.4 | 17.7 | 0.00 | 1.60 | 1.57 | 62 | 1009.7 |
| 20260506153024 | 17 | 240 | 6.4 | 19.3 | 0.00 | 1.60 | 1.57 | 62 | 1009.6 |
| 20260506151523 | 18 | 248 | 8.0 | 14.5 | 0.00 | 1.60 | 1.57 | 61 | 1009.6 |
| 20260506150027 | 18 | 246 | 9.7 | 17.7 | 0.00 | 1.60 | 1.57 | 60 | 1009.7 |
| 20260506144524 | 18 | 238 | 9.7 | 20.9 | 0.00 | 1.60 | 1.57 | 59 | 1009.8 |
| 20260506143021 | 18 | 240 | 9.7 | 19.3 | 0.00 | 1.60 | 1.57 | 58 | 1009.8 |
| 20260506141617 | 18 | 266 | 9.7 | 20.9 | 0.00 | 1.60 | 1.57 | 56 | 1009.8 |
| 20260506140015 | 18 | 228 | 8.0 | 24.1 | 0.00 | 1.60 | 1.57 | 55 | 1009.9 |
| 20260506134514 | 18 | 218 | 6.4 | 22.5 | 0.00 | 1.60 | 1.57 | 60 | 1009.9 |
| 20260506133012 | 18 | 244 | 6.4 | 27.4 | 0.00 | 1.60 | 1.57 | 60 | 1010.1 |
| 20260506131546 | 19 | 248 | 9.7 | 22.5 | 0.00 | 1.60 | 1.57 | 59 | 1010.1 |
| 20260506130044 | 18 | 194 | 9.7 | 17.7 | 0.00 | 1.60 | 1.57 | 59 | 1010.1 |
| 20260506124508 | 18 | 231 | 9.7 | 19.3 | 0.00 | 1.60 | 1.57 | 60 | 1010.1 |
| 20260506123056 | 18 | 250 | 3.2 | 19.3 | 0.00 | 1.60 | 1.57 | 60 | 1010.0 |
| 20260506121556 | 18 | 249 | 3.2 | 16.1 | 0.00 | 1.60 | 1.57 | 61 | 1010.1 |
| 20260506120059 | 18 | 242 | 8.0 | 14.5 | 0.00 | 1.60 | 1.57 | 58 | 1010.2 |
| 20260506114604 | 18 | 290 | 3.2 | 17.7 | 0.00 | 1.60 | 1.57 | 60 | 1010.1 |
| 20260506113053 | 18 | 232 | 4.8 | 16.1 | 0.00 | 1.60 | 1.57 | 58 | 1010.2 |
| 20260506111549 | 18 | 303 | 4.8 | 12.9 | 0.00 | 1.60 | 1.57 | 56 | 1010.4 |
| 20260506110055 | 18 | 267 | 6.4 | 14.5 | 0.00 | 1.60 | 1.57 | 59 | 1010.4 |